Location: Belvedere Heights
(33.9836°N, 117.3109°W)
Time: 23:56:59
(UTC+00:00)

Atlas Centaur 2 - Visible Passes

Search period start: 04 December 2023 00:00
Search period end: 14 December 2023 00:00
Orbit: 458 x 1286 km, 30.4° (Epoch: 04 December)

Date Brightness Start Highest point End Pass type
(mag) Time Alt. Az. Time Alt. Az. Time Alt. Az.
04 Dec 3.7 13:27:36 10° SSW 13:29:58 16° SSE 13:32:29 10° ESE visible
05 Dec 3.5 13:19:33 10° SSW 13:22:11 19° SSE 13:24:59 10° ESE visible
06 Dec 3.1 13:11:47 11° SSW 13:14:26 22° SSE 13:17:26 10° ESE visible
07 Dec 2.8 13:04:58 18° SSW 13:06:41 26° SSE 13:09:49 10° ESE visible
08 Dec 2.4 12:58:02 26° SSW 12:58:58 30° SSE 13:02:12 10° ESE visible
09 Dec 2.1 12:51:02 34° S 12:51:15 34° SSE 12:54:33 10° ESE visible
10 Dec 2.2 12:43:56 37° SSE 12:43:56 37° SSE 12:46:54 10° E visible
11 Dec 2.5 12:36:48 34° SE 12:36:48 34° SE 12:39:14 10° E visible
12 Dec 2.9 12:29:37 28° ESE 12:29:37 28° ESE 12:31:35 10° ESE visible
12 Dec 2.1 14:12:51 10° W 14:16:10 37° S 14:19:35 10° ESE visible
13 Dec 3.3 12:22:22 23° ESE 12:22:22 23° ESE 12:23:55 10° ESE visible
13 Dec 2.2 14:05:11 10° WSW 14:08:27 33° SSW 14:11:45 10° SE visible
